Regional Weather Roundup
Issued by NWS Sioux Falls, SD

Home | Current Version | Previous Version | Text Only | Print | Product List | Glossary On
Versions: 1 2 3 4 5 6 7 8 9 10 11 12 13 14 15 16 17 18 19 20 21 22 23 24 25 26 27 28 29 30 31 32 33 34 35 36 37 38 39 40 41 42 43 44 45 46 47 48 49 50
000
ASUS43 KFSD 171310
RWRFSD

WEATHER ROUNDUP FOR SE SOUTH DAKOTA/SW MINNESOTA/NW IOWA
NATIONAL WEATHER SERVICE SIOUX FALLS SD
800 AM CDT THU AUG 17 2017

NOTE: "FAIR" INDICATES FEW OR NO CLOUDS BELOW 12,000 FEET WITH NO
SIGNIFICANT WEATHER AND OR OBSTRUCTIONS TO VISIBILITY.


SDZ038>040-050-052>070-171400-
SOUTHEAST SOUTH DAKOTA

CITY           SKY/WX    TMP DP  RH WIND       PRES   REMARKS
BROOKINGS      CLOUDY    62  58  86 NW20      29.84R
CHAMBERLAIN    SUNNY     58  56  95 SW5       29.96R
HURON          SUNNY     58  55  90 NW9       29.89R
MADISON        PTSUNNY   59  59 100 NW18      29.87R
MITCHELL       SUNNY     59  56  89 W9        29.91R
SIOUX FALLS    MOSUNNY   63  60  90 NW14      29.85R
WINNER         FAIR      60  50  69 SW7       29.96S
$$

MNZ071-072-080-081-089-090-097-098-171400-
SOUTHWEST MINNESOTA

CITY           SKY/WX    TMP DP  RH WIND       PRES   REMARKS
FAIRMONT       CLOUDY    66  63  90 W18       29.72R
JACKSON        CLOUDY    63  63 100 W15       29.77R FOG
LUVERNE        CLOUDY    61  55  82 NW16      29.83R
MARSHALL       CLOUDY    62  61  96 NW17      29.77R
MONTEVIDEO     CLOUDY    63  63 100 N12G26    29.75R
PIPESTONE      CLOUDY    63  59  88 NW15G23   29.82R
REDWOOD FALLS  CLOUDY    66  62  87 NW18G26   29.70R
TRACY          CLOUDY    64  63  98 NW16      29.77R
WINDOM         PTSUNNY   64  63  94 W15G22    29.76R
WORTHINGTON    CLOUDY    63  61  93 W16       29.80R
$$

IAZ001>003-012>014-020>022-031-032-NEZ013-014-SDZ071-171400-
NORTHWEST IOWA

CITY           SKY/WX    TMP DP  RH WIND       PRES   REMARKS
CHEROKEE       CLOUDY    64  63  97 W10       29.84R
DENISON        CLOUDY    64  63  94 W14       29.88R
ESTHERVILLE    CLOUDY    64  64 100 W15       29.75R
LE MARS        CLOUDY    64  59  82 W9G20     29.87R
ORANGE CITY    CLOUDY    64  61  88 NW17G23   29.85R
SHELDON        CLOUDY    64  61  88 W10G21    29.82R
SIOUX CITY     PTSUNNY   63  61  93 NW10G18   29.88R
SPENCER        CLOUDY    65  63  93 W20       29.79R
STORM LAKE     MOSUNNY   64  63  94 W14G21    29.83R FOG
$$

ABBREVIATIONS USED IN REMARKS
   TC - TEMPERATURE IN CELSIUS
  WCI - WIND CHILL INDEX
   HX - HEAT INDEX
  VSB - VISIBILITY





USA.gov is the U.S. government's official web portal to all federal, state and local government web resources and services.